Location: Circle Lane School (historical)
(41.2781°N, 96.3214°W)
Time: 00:47:34
(UTC+00:00)

Daily predictions for brighter satellites

Satellite Brightness Start Highest point End
(mag) Time Altitude Azimuth Time Altitude Azimuth Time Altitude Azimuth
Cosmos 405 4.3 01:09:13 10° SSW 01:12:36 45° WNW 01:16:01 10° N
ISS -1.6 01:16:39 10° SE 01:17:17 10° SE 01:17:56 10° ESE
ATLAS 5 CENTAUR R/B 3.2 01:14:31 10° SSE 01:17:28 17° ESE 01:20:34 10° ENE
Okean 3 Rocket 4.0 01:15:51 10° N 01:20:01 41° ENE 01:24:11 10° SSE
USA 215 4.3 01:15:13 10° ENE 01:20:04 22° ESE 01:24:54 10° S
Cosmos 1934 Rocket 3.9 01:15:18 10° S 01:21:25 76° E 01:27:29 10° N
Cosmos 2297 4.4 01:17:20 10° SSE 01:22:21 33° ESE 01:27:24 10° NE
Tiangong 1 2.3 01:20:12 10° W 01:22:53 32° SSW 01:25:33 10° SE
H-2A R/B 3.1 01:19:10 10° SSE 01:22:55 47° ENE 01:26:43 10° N
Cosmos 1867 4.2 01:19:25 10° S 01:24:16 34° ESE 01:29:09 10° NE
Abrixas 2.7 01:21:50 10° NW 01:24:37 49° NNE 01:26:58 13° E
FengYun 1-2 T 4.2 01:20:04 10° SSE 01:25:37 74° ENE 01:31:15 10° N
Spot 2 Rocket 3.6 01:23:27 10° SSE 01:28:24 56° ENE 01:33:26 10° N
Cosmos 1758 3.8 01:28:45 10° SSE 01:32:26 38° E 01:36:10 10° NNE
Cosmos 1812 Rocket 4.1 01:28:12 10° SSW 01:32:35 64° W 01:36:57 10° N
Helios 1B rocket 3.4 01:29:40 10° NE 01:33:07 25° E 01:36:32 10° SSE
Cosmos 1076 Rocket 4.1 01:29:20 10° N 01:33:16 35° ENE 01:37:09 10° SE
FREGAT/IRIS 4.1 01:30:55 10° S 01:33:50 40° W 01:36:45 10° NNW
Meteor 1-24 Rocket 4.0 01:30:48 10° NNW 01:36:17 72° W 01:41:57 10° S
Cosmos 2082 Rocket 2.7 01:31:04 10° N 01:36:24 40° ENE 01:41:10 13° SE
Lacrosse 5 2.3 01:31:34 10° SW 01:36:36 65° NW 01:41:39 10° NE
USA 186 2.1 01:39:54 23° E 01:40:14 23° ENE 01:42:06 10° NNE
Cosmos 1953 2.6 01:36:29 10° SSE 01:40:21 44° E 01:44:14 10° NNE
Lacrosse 4 Rocket 3.9 01:37:53 10° WSW 01:41:08 23° NW 01:44:25 10° N
GP-B 3.7 01:41:36 10° SSE 01:45:38 36° E 01:49:42 10° NNE
Envisat 3.8 01:42:59 14° ESE 01:46:36 31° ENE 01:51:02 10° N
Cosmos 1939 Rocket 4.2 01:45:33 18° E 01:47:04 22° ENE 01:50:18 10° NNE
Helios 1A 3.4 01:43:23 11° SE 01:47:07 41° ENE 01:51:05 10° N
Cosmos 1766 Rocket 4.1 01:44:51 10° N 01:49:05 39° ENE 01:52:36 14° SE
Cosmos 1271 Rocket 3.7 01:45:45 10° SSE 01:49:07 26° E 01:52:31 10° NE
Cosmos 1766 4.5 01:47:58 10° SSW 01:51:42 45° W 01:55:28 10° N
Resurs 01 Rocket 1.7 01:47:24 10° S 01:51:48 80° WSW 01:56:15 10° NNW
Cosmos 1125 Rocket 3.4 01:49:50 10° S 01:54:59 68° ESE 02:00:10 10° NNE
Cosmos 1048 Rocket 4.0 01:53:24 10° NNW 01:58:29 60° ENE 02:02:27 16° SE
Cosmos-2242 3.4 01:55:33 10° SSE 01:59:30 39° E 02:03:29 10° NNE
Geosat 3.9 01:55:05 10° NNE 02:00:06 68° ESE 02:05:06 10° SSW
Lacrosse 5 rocket 2.4 01:57:40 10° NNW 02:01:06 27° NNE 02:02:25 22° ENE
ERS-1 Rocket 4.1 02:03:22 23° E 02:04:40 26° ENE 02:08:45 10° N
Cosmos 1674 2.8 02:01:17 10° N 02:04:59 53° E 02:06:52 26° SE
Cosmos 1605 Rocket 4.3 01:58:56 10° SSW 02:05:11 72° W 02:11:33 10° N
Cosmos 2100 Rocket 4.2 02:01:13 10° SSE 02:07:16 52° E 02:13:25 10° NNE
SeaSat 1 3.6 02:03:38 10° S 02:08:17 42° WSW 02:12:58 10° NW
SAR-Lupe-4 3.4 02:05:55 18° SSE 02:08:30 82° ENE 02:12:06 10° N
YAOGAN 6 4.3 02:10:52 19° NE 02:10:52 19° NE 02:12:55 10° NNE
CZ-2D R/B 4.2 02:14:39 10° S 02:18:24 49° W 02:22:11 10° NNW
Meteor 1-29 2.8 02:16:15 10° NNE 02:19:43 71° E 02:22:08 19° S
Cosmos 1743 Rocket 4.0 02:16:23 10° N 02:20:35 40° ENE 02:21:02 39° E
GPS 2-05 Rocket1 4.2 02:21:29 10° SW 02:24:11 28° S 02:24:11 28° S
COSMOS 2487 2.6 02:22:36 10° NNW 02:26:09 73° WSW 02:27:14 42° S
SAR-Lupe-1 4.3 02:25:36 27° S 02:27:23 66° WSW 02:30:58 10° NNW
Cosmos 1802 Rocket 3.9 02:22:32 10° S 02:28:31 59° E 02:34:34 10° NNE
BREEZE-M DEB (TANK) 4.0 02:28:04 10° W 02:31:16 61° NNW 02:41:12 10° ENE
Cosmos 1818 4.2 02:26:30 10° NW 02:31:47 53° WSW 02:35:23 20° S
Cosmos 2251 Rocket 4.1 02:28:39 10° N 02:33:38 39° ENE 02:34:10 38° E
Meteor 1-4 Rocket 4.3 02:30:55 10° SW 02:34:03 31° WNW 02:37:12 10° N
Cosmos 1269 Rocket 4.5 02:32:29 10° NNW 02:37:41 60° WSW 02:41:19 20° S
Cosmos 1470 3.0 02:35:46 11° SSW 02:39:38 71° W 02:43:36 10° N
Cosmos 1408 Rocket 4.2 02:37:30 10° NNW 02:41:52 55° W 02:44:55 19° SSW
Cosmos 2061 Rocket 3.9 02:35:45 10° S 02:42:08 83° E 02:48:36 10° N
Cosmos 1833 Rocket 2.9 02:38:58 10° NNW 02:44:33 66° WSW 02:47:24 29° S
CZ-4B DEB 3.7 02:44:38 43° W 02:44:38 43° W 02:47:37 10° NNW
Cosmos 1340 Rocket 2.9 02:43:25 10° NNW 02:47:26 73° W 02:47:50 66° SW
Timation 2 Rocket 4.0 02:41:15 10° NNW 02:47:32 73° WSW 02:50:27 32° S
Cosmos 1733 3.8 02:45:50 20° SSW 02:48:19 56° W 02:52:10 10° N
Cosmos 2278 Rocket 4.5 02:46:11 10° WSW 02:50:44 24° NW 02:55:18 10° N
ISS -1.6 02:50:01 10° SW 02:51:10 20° SW 02:51:10 20° SW
Cosmos 1842 Rocket 4.0 02:55:26 49° NNE 02:55:26 49° NNE 02:58:43 10° NNE
CZ-3B DEB 4.1 02:48:13 10° W 02:55:44 30° NW 02:59:39 11° NNE
Cosmos 1459 Rocket 4.2 02:52:29 10° SSW 02:58:43 68° W 03:04:53 10° N
Cosmos 2151 4.1 02:57:16 10° N 02:59:52 34° NNE 02:59:52 34° NNE
ATLAS 5 CENTAUR R/B 2.3 02:56:53 10° SW 03:01:31 58° NW 03:06:35 10° NNE
USA 215 3.1 02:57:03 10° NE 03:03:37 86° SE 03:10:09 10° SW
Cosmos 2173 Rocket 4.4 02:58:30 10° SSW 03:04:35 63° W 03:10:49 10° N
Cosmos 1864 Rocket 4.4 03:08:56 65° SE 03:09:40 72° E 03:15:57 10° NNE
BREEZE-M DEB (TANK) 3.7 03:05:45 10° WSW 03:09:48 89° NNW 03:25:37 10° ENE
Cosmos 494 Rocket 4.0 03:12:44 10° NNW 03:17:23 73° NNW 03:17:23 73° NNW
Meteor 1-11 4.1 03:13:25 10° N 03:18:56 87° NW 03:18:56 87° NW
Cosmos 2082 Rocket 3.8 03:15:27 10° NW 03:20:18 30° WSW 03:23:04 20° SW
Lacrosse 5 4.2 03:16:47 10° WNW 03:20:27 19° NNW 03:24:07 10° NNE
SPOT 5 3.5 03:24:16 57° NNE 03:24:16 57° NNE 03:28:34 10° N
MetOp-A 4.4 03:31:24 67° NW 03:31:24 67° NW 03:36:06 10° NNW
H-2A R/B 3.4 03:33:29 32° NNE 03:33:29 32° NNE 03:36:31 10° N
ARGOS 3.7 03:33:03 51° N 03:33:03 51° N 03:37:04 10° N
USA 267 3.6 03:35:30 51° NE 03:35:51 51° NNE 03:42:09 10° NW
Lacrosse 5 rocket 3.8 03:36:49 10° WNW 03:38:08 19° WNW 03:38:08 19° WNW
Terra 4.1 03:43:39 16° NNE 03:43:39 16° NNE 03:44:46 10° N
ERS-1 Rocket 4.1 03:43:21 38° W 03:43:21 38° W 03:47:56 10° NNW
Cosmos 1725 Rocket 4.3 03:43:45 56° WSW 03:44:35 61° W 03:50:44 10° N
Cosmos 2369 Rocket 4.4 04:16:36 17° NNE 04:16:36 17° NNE 04:17:54 10° NNE
CENTAUR R/B 4.1 07:56:49 30° NE 07:56:49 30° NE 08:00:10 10° NE
SL-16 R/B 4.0 08:04:29 31° NNE 08:04:29 31° NNE 08:08:19 10° N
Cosmos 1980 Rocket 4.3 08:14:50 21° N 08:14:50 21° N 08:16:46 10° NNE
Cosmos 2263 Rocket 4.5 08:19:52 10° NNW 08:21:08 17° N 08:21:08 17° N
FALCON 9 R/B 4.2 08:40:47 63° S 08:40:58 63° S 09:14:05 10° ESE
ARIANE 5 R/B 4.4 08:36:53 10° NNE 08:39:17 27° NNE 08:39:17 27° NNE
Cosmos 2322 Rocket 3.4 09:26:07 32° NNW 09:26:07 32° NNW 09:29:41 10° N
Resurs 1-4 Rocket 3.2 09:21:21 10° N 09:24:32 36° NNW 09:24:32 36° NNW
SL-16 R/B 3.4 09:32:08 31° NNW 09:32:08 31° NNW 09:35:54 10° N
DELTA 2 R/B (1) 4.2 09:33:23 47° ESE 09:33:23 47° ESE 09:37:40 10° E
CZ-2D R/B 3.1 09:27:11 10° N 09:30:52 39° NNW 09:30:52 39° NNW
ADEOS Rocket 3.2 09:30:15 10° N 09:34:37 52° NNW 09:34:37 52° NNW
Cosmos 2219 Rocket 4.0 09:33:13 18° SE 09:35:56 26° ESE 09:40:28 10° NE
Cosmos 2237 4.4 09:36:55 61° SE 09:37:21 63° ESE 09:43:01 10° NNE
COSMOS 2428 3.3 09:40:36 46° SE 09:41:39 52° ESE 09:47:10 10° NNE
MOS 1-B 4.5 09:35:54 10° NNE 09:41:44 70° ESE 09:42:50 56° SSE
Cosmos 1844 Rocket 3.8 09:36:48 10° N 09:42:06 42° ENE 09:47:21 10° SE
Nadezhda 1 Rocket 4.1 09:41:46 44° SSE 09:43:39 67° E 09:49:40 10° NNE
CENTAUR R/B 3.9 09:43:59 25° NW 09:44:53 25° NW 09:50:37 10° NNE
SL-16 R/B 4.0 09:49:34 21° NW 09:49:34 21° NW 09:51:54 10° NNW
ADEOS II 3.4 09:43:41 10° NNE 09:48:30 35° E 09:52:09 16° SSE
COBE Rocket 4.4 09:45:00 10° N 09:49:05 51° NNW 09:49:05 51° NNW
USA 215 3.7 09:45:21 10° ESE 09:51:45 58° NE 09:58:10 10° NW
Cosmos 2360 Rocket 2.3 09:54:31 56° NW 09:54:31 56° NW 09:59:52 10° NNE
Cosmos 2208 Rocket 4.2 09:57:08 52° S 09:58:23 72° ESE 10:03:49 10° NNE
USA 229 DEB 4.5 09:55:30 25° S 09:59:07 47° ESE 10:05:40 10° NE
USA 229 4.5 09:55:35 25° S 09:59:13 46° ESE 10:05:46 10° NE
Cosmos 2074 Rocket 3.9 09:53:11 10° NNW 09:59:23 68° W 10:00:33 56° SW
Cosmos 2278 Rocket 4.3 09:55:18 10° N 10:00:05 27° NE 10:04:51 10° ESE
Cosmos 1340 4.0 10:02:12 33° N 10:02:12 33° N 10:04:26 10° N
Cosmos 2237 Rocket 4.1 10:00:42 10° SSE 10:05:21 27° ESE 10:10:02 10° NE
Tiangong 2 3.6 10:08:30 16° ESE 10:08:30 16° ESE 10:09:17 10° ESE
ATLAS 5 CENTAUR R/B 3.7 10:03:16 10° NNW 10:08:51 40° NE 10:14:52 10° ESE
Cosmos 1666 4.3 10:09:31 10° N 10:13:07 35° ENE 10:16:42 10° SE
Okean O Rocket 1.7 10:10:14 10° NNE 10:14:42 75° ESE 10:16:07 43° S
ARIANE 5 R/B 4.2 10:17:05 10° NNW 10:19:38 18° NW 10:19:38 18° NW
Cosmos 1455 Rocket 4.2 10:17:27 10° NNW 10:19:57 29° NW 10:19:57 29° NW
MOS 1 Rocket 3.2 10:18:35 10° N 10:23:09 54° WNW 10:23:26 53° W
Cosmos 1743 2.7 10:19:21 10° N 10:23:14 82° E 10:25:03 30° SSE
CZ-2C R/B 4.0 10:21:36 10° SSE 10:26:08 69° ENE 10:30:37 10° N
Cosmos 1238 Rocket 2.6 10:29:19 52° N 10:29:19 52° N 10:31:42 10° N
Cosmos 2333 Rocket 2.7 10:24:31 15° S 10:29:05 58° ESE 10:34:44 10° NNE
PAYLOAD B 4.2 10:23:44 10° NNE 10:29:22 89° E 10:33:43 18° SSW
Cosmos 1570 Rocket 4.2 10:31:06 41° WSW 10:32:25 52° WNW 10:37:33 10° N
Cosmos 1898 Rocket 3.9 10:27:24 10° NNW 10:32:35 63° ENE 10:37:41 10° SSE
Meteor 1-31 Rocket 4.4 10:34:28 10° NNE 10:37:58 34° E 10:41:26 10° SSE
Cosmos 2285 Rocket 4.3 10:33:40 10° S 10:40:03 71° ESE 10:46:29 10° NNE
Meteor 2-19 Rocket 4.5 10:35:45 10° N 10:41:52 82° E 10:47:56 10° S
Meteor PRIRODA 4.4 10:38:10 10° NNE 10:41:52 53° E 10:45:32 10° S
EO 1 Del DPAF 3.1 10:38:38 10° S 10:42:27 64° W 10:46:18 10° NNW
Cosmos 1295 Rocket 4.5 10:39:17 10° N 10:45:33 85° E 10:51:42 10° S
CZ-4B R/B 3.0 10:42:59 10° N 10:46:28 44° WNW 10:47:01 40° W
Cosmos 1536 Rocket 4.4 10:47:52 30° W 10:48:13 30° WNW 10:52:12 10° NNW
GPS 2-04 Rocket1 4.3 10:48:05 19° SSW 10:49:26 23° SSE 10:52:32 10° ESE
Cosmos 1437 4.1 10:47:02 10° SSE 10:50:08 41° E 10:53:15 10° NNE
Cosmos 962 Rocket 4.5 10:46:59 10° NNW 10:53:13 68° W 10:59:29 10° S
Cosmos 1844 3.6 10:48:16 10° NNW 10:54:00 68° WSW 10:59:38 10° SSE
Cosmos 1763 Rocket 4.3 10:50:25 10° S 10:55:17 50° ESE 11:00:14 10° NNE
IRS-1C Rocket 4.2 10:52:14 10° N 10:57:20 53° WNW 11:01:34 15° SW
PSLV R/B 3.7 10:54:09 10° N 10:58:22 51° WNW 11:01:29 17° SW
Cosmos 1937 Rocket 3.7 10:54:51 10° NNW 11:00:12 79° ENE 11:05:29 10° SSE
ERS-2 2.3 10:56:45 10° NNE 11:00:27 75° ESE 11:04:07 10° S
CZ-4B R/B 3.4 10:56:05 10° N 11:01:34 54° WNW 11:06:51 10° SW
SL-16 R/B 3.9 10:57:31 10° SSE 11:02:32 34° ESE 11:07:35 10° NE
CZ-4B DEB 4.4 10:57:36 10° N 11:03:00 52° WNW 11:08:17 10° SW
Cosmos 371 Rocket 4.3 11:03:38 10° S 11:08:17 48° ESE 11:12:59 10° NNE
Cosmos 841 Rocket 4.2 11:05:08 10° S 11:10:09 55° ESE 11:15:11 10° NNE
RUBIN 8/PSLV 4.5 11:06:56 10° N 11:11:13 77° WNW 11:15:30 10° SSW
Cosmos 1980 3.6 11:06:45 10° SSW 11:12:24 79° WNW 11:18:05 10° NNE
Cosmos 332 Rocket 4.1 11:07:35 10° S 11:12:27 72° ESE 11:17:21 10° NNE
Okean 1-7 Rocket 3.8 11:08:42 10° SSW 11:13:04 48° W 11:17:25 10° N
OTV 4 2.7 11:13:12 10° SSW 11:14:53 15° SSE 11:16:38 10° ESE
DELTA 2 R/B (1) 3.6 11:14:09 17° W 11:18:32 76° S 11:24:04 10° E
Cosmos 1606 Rocket 3.5 11:14:27 10° N 11:18:56 82° W 11:23:25 10° S
Cosmos 2219 Rocket 2.6 11:14:58 13° SW 11:19:36 44° WNW 11:24:56 10° NNE
GENESIS II 4.4 11:18:35 14° SW 11:22:01 58° NW 11:26:04 10° NNE
Cosmos 1814 Rocket 4.0 11:17:49 10° SSW 11:22:57 64° WNW 11:28:06 10° NNE
Aureole 2 Rocket 2.6 11:21:05 10° SW 11:24:35 48° WNW 11:27:49 10° N
Cosmos 2298 Rocket 4.2 11:19:35 10° NNW 11:24:44 51° WSW 11:29:52 10° S
Cosmos 1844 Rocket 3.5 11:21:09 10° NW 11:25:44 27° WSW 11:30:17 10° SSW
COSMOS 2428 3.9 11:22:39 14° W 11:26:14 25° NW 11:30:51 10° N
Meteor 2-9 Rocket 4.4 11:21:01 10° NNW 11:26:27 48° W 11:31:41 10° SSW
ADEOS II 3.0 11:23:37 10° N 11:28:06 29° WNW 11:32:33 10° SW
Meteor 1-28 Rocket 4.5 11:25:21 10° SSE 11:29:00 46° ENE 11:32:41 10° N
SL-8 Rocket 4.0 11:22:59 10° NNW 11:29:02 58° W 11:35:03 10° S
ERBS 4.4 11:28:52 10° NNW 11:31:56 27° NE 11:34:59 10° E
Radarsat Rocket 4.4 11:26:14 10° NNE 11:32:08 66° ESE 11:37:56 10° S
Cosmos 2181 Rocket 4.5 11:27:48 10° SW 11:33:34 39° WNW 11:39:27 10° N
USA 215 3.6 11:28:42 10° SSE 11:34:51 43° SW 11:41:03 10° WNW
Cosmos 2228 3.2 11:35:07 10° N 11:39:29 82° E 11:43:50 10° S
Cosmos 2360 Rocket 4.3 11:39:15 10° NW 11:39:36 10° NW 11:39:56 10° NW
Cosmos 864 Rocket 4.5 11:35:45 10° NNW 11:41:53 67° W 11:48:04 10° S
Tiangong 2 3.1 11:40:43 10° WSW 11:42:24 14° SW 11:44:05 10° S
Cosmos 2278 Rocket 2.5 11:38:58 10° NW 11:44:23 46° WSW 11:49:44 10° S
Cosmos 1441 Rocket 3.2 11:40:32 10° SSW 11:44:28 71° W 11:48:29 10° N
Timation 1 Rocket 4.3 11:39:36 10° NNW 11:45:35 72° WSW 11:51:31 10° SSE
Cosmos 1515 3.7 11:43:29 10° SSW 11:47:18 61° W 11:51:08 10° N
Cosmos 1666 4.4 11:46:14 10° NW 11:48:27 15° W 11:50:39 10° WSW
Cosmos 1025 Rocket 4.1 11:45:23 10° SW 11:49:00 25° WNW 11:52:40 10° NNW
Cosmos 2237 Rocket 2.6 11:43:44 10° SW 11:49:08 44° WNW 11:54:35 10° NNE
USA 229 DEB 4.3 11:43:47 10° WSW 11:50:09 40° NW 11:56:40 10° NNE
USA 229 4.3 11:43:53 10° WSW 11:50:15 40° NW 11:56:46 10° NNE
COSMO-SKYMED 1 2.5 11:46:31 10° S 11:50:50 74° WSW 11:55:11 10° NNW
